Showing default

OPS 4947 (TRANSIT 17), 2965

Orbit data source: Space-Track

OPS 4947 (TRANSIT 17), 2965 is a payload satellite owned by USN NAVAIR (US) in LEO that was launched on Mon, 25 Sep 1967 UTC via an SCOUT A launch vehicle from the Air Force Western Test Range (AFWTR). Payload-class satellites include a variety of spacecraft equipped with specific instruments for various scientific and technological missions. These include communications satellites like Starlink; space stations such as the ISS; scientific satellites like the Hubble; Earth observation satellites from companies like Planet Labs, Umbra, and HawkEye 360; GPS; miniature CubeSats for education and research; and military/defense satellites.

Loading next visibility...
Identifier
2965, 1967-092A
Orbit
LEO
Country
Flag of USUS
Related business
Manufacturer
APL
Mission
Defense Navigation
Bus & Motor
TRANSIT 5, Unknown motor
Mass
~50 kg wet, ~50 kg dry
Launch date (UTC)
1967-09-25 (58 years ago)
Launch vehicle
SCOUT A
Launch site
Air Force Western Test Range (AFWTR)
Object type
Payload
Rocket body
Debris
Shape & HBR
Oct Cyl + 4 Pan + 1 Rod, Unknown HBR
Radar Cross Section
7.565 m², Large (>1 m²)

Expand to show TLE details & history
Last TLE update: 12 hours ago

TLE from 12 hours ago
0 OPS 4947 (TRANSIT 17)
1 02965U 67092A   25258.30796889  .00000113  00000-0  14978-3 0  9995
2 02965  89.2489  31.1537 0049218 131.5707 244.1688 13.53424423859019
Epoch: 2025-09-15T07:23Z
TLE epoch observation values (Epoch: 2025-09-15T07:23:28.512Z)
Latitude
15.20671°
Longitude
-74.02646°
Altitude
1,078.051 km
Speed
7.306 km/s
True Right ascension
02h 05m 25s
True Declination
15° 07' 25"
Sunlit
Object was in full shadow at epoch
Visualization orbit readout
Latitude
Unknown
Longitude
Unknown
Altitude
Unknown
Speed
Unknown
Apparent Right ascension
Unknown
Apparent Declination
Unknown
Sunlit
N/A
Visualization observer readout
Local Sidereal Time
12:18:25
Azimuth
Unknown
Elevation
Unknown
Doppler factor
Unknown
Orbital elements
Apogee altitude
1,093.325 km
Perigee altitude
1,020.139 km
Semi-major axis
7,434.869 km
Eccentricity
0.00492
Inclination
89.2489°
RAAN
31.1537°
Arg. of periapsis
131.5707°
True anomaly
243.66252°
Mean anomaly
244.1688°
Eccentric anomaly
243.91552°
Mean motion
3.38558 °/min
Orbital period
106.33 mins
BSTAR
0.00014978
Loading maneuver chart data...
Computing Atmospheric mass density...
Loading historical data...
Loading historical data...
Loading historical data...
Loading historical data...
Loading historical data...
Loading historical data...
Loading historical data...

Documentation

Showing up to 5 results
|